FW0034 Weather Reports


time (UTC)temp
F
wind
direction
speed
knots
gust
knots
rain 1hr
in
rain 24hr
in
rain mn
in
humidity
%
barometer
mb
20260508091117 55 139 2.6 3.5 0.00 0.00 0.00 73 1008.4
20260508090011 53 122 1.7 3.5 0.00 0.00 0.00 76 1008.2
20260508085616 53 126 2.6 3.5 0.00 0.00 0.00 76 1008.4
20260508084506 52 129 3.5 3.5 0.00 0.00 0.00 77 1007.9
20260508083607 51 128 3.5 3.5 0.00 0.00 0.00 78 1007.9
20260508082706 51 119 3.5 5.2 0.00 0.00 0.00 79 1008.0
20260508081808 51 137 3.5 3.5 0.00 0.00 0.00 80 1007.8
20260508080907 50 125 2.6 3.5 0.00 0.00 0.00 80 1007.7
20260508080009 50 127 2.6 3.5 0.00 0.00 0.00 80 1007.8
20260508075406 50 116 2.6 3.5 0.00 0.00 0.00 79 1007.7
20260508074506 51 121 3.5 3.5 0.00 0.00 0.00 79 1007.6
20260508073816 51 111 2.6 3.5 0.00 0.00 0.00 78 1007.6
20260508072708 51 121 1.7 3.5 0.00 0.00 0.00 77 1007.6
20260508072021 52 116 1.7 1.7 0.00 0.00 0.00 76 1007.2
20260508070909 52 121 1.7 3.5 0.00 0.00 0.00 75 1007.3
20260508070007 52 132 1.7 3.5 0.00 0.00 0.00 74 1007.2
20260508065406 51 130 2.6 3.5 0.00 0.00 0.00 74 1007.3
20260508064508 51 135 1.7 3.5 0.00 0.00 0.00 74 1007.1
20260508063609 51 132 3.5 3.5 0.00 0.00 0.00 75 1007.1
20260508062705 50 138 4.3 6.1 0.00 0.00 0.00 76 1006.8
20260508062016 49 144 4.3 5.2 0.00 0.00 0.00 77 1006.9
20260508060908 47 117 1.7 1.7 0.00 0.00 0.00 83 1006.7
20260508060010 46 123 1.7 1.7 0.00 0.00 0.00 84 1006.7
20260508055405 46 121 1.7 1.7 0.00 0.00 0.00 84 1006.7
20260508054507 46 123 1.7 3.5 0.00 0.00 0.00 83 1006.7
20260508053606 46 121 0.9 1.7 0.00 0.00 0.00 84 1006.5
20260508052707 46 139 0.9 3.5 0.00 0.00 0.00 85 1006.5
20260508051808 45 131 1.7 3.5 0.00 0.00 0.00 85 1006.6
20260508050907 45 116 2.6 3.5 0.00 0.00 0.00 86 1006.3
20260508050008 45 124 1.7 3.5 0.00 0.00 0.00 86 1006.5
20260508045407 45 125 1.7 3.5 0.00 0.00 0.00 86 1006.4
20260508044506 44 122 1.7 1.7 0.00 0.00 0.00 87 1006.4
20260508043605 44 126 1.7 1.7 0.00 0.00 0.00 86 1006.2
20260508042920 44 128 1.7 3.5 0.00 0.00 0.00 86 1006.3
20260508041804 44 120 2.6 3.5 0.00 0.00 0.00 86 1006.3
20260508040907 44 114 0.9 1.7 0.00 0.00 0.00 86 1006.1
20260508040008 45 112 0.9 1.7 0.00 0.00 0.00 86 1006.1
20260508035405 45 113 0.9 1.7 0.00 0.00 0.00 86 1006.3
20260508034506 45 129 1.7 1.7 0.00 0.00 0.00 86 1006.2
20260508033605 44 116 1.7 1.7 0.00 0.00 0.00 86 1006.5
20260508032705 44 117 1.7 1.7 0.00 0.00 0.00 86 1006.3
20260508031807 45 114 0.9 1.7 0.00 0.00 0.00 86 1006.3
20260508030905 45 116 1.7 1.7 0.00 0.00 0.00 86 1006.5
20260508030218 45 126 1.7 1.7 0.00 0.00 0.00 86 1006.4
20260508025412 45 117 0.9 1.7 0.00 0.00 0.00 86 1006.4
20260508024507 45 117 1.7 3.5 0.00 0.00 0.00 86 1006.2
20260508023819 45 125 1.7 1.7 0.00 0.00 0.00 85 1006.3
20260508022922 45 132 1.7 1.7 0.00 0.00 0.00 84 1006.1
20260508022019 46 147 0.9 1.7 0.00 0.00 0.00 84 1006.3
20260508020905 46 117 2.6 3.5 0.00 0.00 0.00 84 1006.1
20260508020010 46 119 0.9 1.7 0.00 0.00 0.00 83 1006.3
20260508015407 46 112 0.0 1.7 0.00 0.00 0.00 82 1006.2
20260508014505 46 0 0.0 0.0 0.00 0.00 0.00 81 1006.2
20260508013608 46 0 0.0 0.0 0.00 0.00 0.00 80 1006.2
20260508012707 47 112 0.9 1.7 0.00 0.00 0.00 79 1006.0
20260508011809 48 112 0.0 1.7 0.00 0.00 0.00 77 1006.1
20260508010907 48 112 0.0 1.7 0.00 0.00 0.00 76 1006.1
20260508010008 49 119 0.9 1.7 0.00 0.00 0.00 76 1006.0
20260508005616 49 127 1.7 1.7 0.00 0.00 0.00 76 1006.1
20260508004506 49 137 0.9 1.7 0.00 0.00 0.00 76 1006.1
20260508003820 48 152 0.9 1.7 0.00 0.00 0.00 77 1006.1
20260508002705 48 128 1.7 1.7 0.00 0.00 0.00 78 1006.2
20260508001807 48 135 0.9 1.7 0.00 0.00 0.00 79 1006.2
20260508000905 48 135 0.0 1.7 0.00 0.00 0.00 79 1006.3
20260508000006 48 147 0.9 1.7 0.00 0.00 0.00 79 1006.4
20260507235406 48 136 1.7 1.7 0.00 0.00 0.00 79 1006.4
20260507234506 49 136 1.7 1.7 0.00 0.00 0.00 78 1006.1
20260507233816 49 127 1.7 3.5 0.00 0.00 0.00 78 1006.3
20260507232707 49 118 1.7 3.5 0.00 0.00 0.00 76 1006.1
20260507231807 50 136 0.9 1.7 0.00 0.00 0.00 74 1006.5
20260507230906 50 135 0.0 1.7 0.00 0.00 0.00 73 1006.2
20260507230221 50 149 0.9 1.7 0.00 0.00 0.00 73 1006.5
20260507225406 51 211 1.7 3.5 0.00 0.00 0.00 72 1006.4
20260507224514 51 217 2.6 3.5 0.00 0.00 0.00 72 1006.2
20260507223817 51 210 2.6 3.5 0.00 0.00 0.00 72 1006.2
20260507222707 51 219 1.7 3.5 0.00 0.00 0.00 72 1006.2
20260507221806 51 191 0.9 1.7 0.00 0.00 0.00 72 1006.1
20260507220906 51 193 0.9 1.7 0.00 0.00 0.00 72 1006.0
20260507220010 51 207 2.6 3.5 0.00 0.00 0.00 71 1006.1
20260507215618 51 216 2.6 3.5 0.00 0.00 0.00 71 1006.2
20260507214510 52 204 1.7 3.5 0.00 0.00 0.00 71 1006.0
20260507213607 52 202 1.7 1.7 0.00 0.00 0.00 71 1006.1
20260507212710 52 195 2.6 3.5 0.00 0.00 0.00 71 1006.0
20260507211806 52 191 2.6 3.5 0.00 0.00 0.00 71 1006.2
20260507210907 52 202 2.6 3.5 0.00 0.00 0.00 71 1006.0
20260507210007 52 183 3.5 3.5 0.00 0.00 0.00 71 1006.0
20260507205404 52 179 2.6 3.5 0.00 0.00 0.00 72 1006.0
20260507204506 52 181 0.9 1.7 0.00 0.00 0.00 72 1005.8
20260507203608 52 243 0.0 1.7 0.00 0.00 0.00 71 1005.7
20260507202706 53 216 1.7 1.7 0.00 0.00 0.00 70 1005.8
20260507201807 54 194 1.7 3.5 0.00 0.00 0.00 68 1005.4
20260507200910 54 198 2.6 3.5 0.00 0.00 0.00 68 1005.5
20260507200011 55 203 2.6 3.5 0.00 0.00 0.00 68 1005.5
20260507195408 55 211 1.7 3.5 0.00 0.00 0.00 68 1005.3
20260507194507 55 211 1.7 3.5 0.00 0.00 0.00 69 1005.2
20260507193606 55 224 0.9 1.7 0.00 0.00 0.00 70 1005.4
20260507192707 56 185 1.7 1.7 0.00 0.00 0.00 69 1005.1
20260507192018 56 177 1.7 3.5 0.00 0.00 0.00 69 1005.4
20260507190907 56 157 1.7 3.5 0.00 0.00 0.00 68 1005.2
20260507190006 56 171 2.6 3.5 0.00 0.00 0.00 67 1005.2
20260507185406 56 176 3.5 3.5 0.00 0.00 0.00 66 1005.1
20260507184506 56 199 2.6 3.5 0.00 0.00 0.00 66 1005.1
20260507183607 57 199 1.7 3.5 0.00 0.00 0.00 66 1005.0
20260507182917 57 210 3.5 6.1 0.00 0.00 0.00 67 1004.9
20260507182019 58 186 2.6 3.5 0.00 0.00 0.00 67 1005.1
20260507180907 56 207 3.5 5.2 0.00 0.00 0.00 69 1004.9
20260507180006 56 230 4.3 6.1 0.00 0.00 0.00 70 1005.1
20260507175405 56 223 4.3 6.1 0.00 0.00 0.00 70 1004.9
20260507174717 55 216 2.6 5.2 0.00 0.00 0.00 70 1004.9
20260507173815 55 243 2.6 3.5 0.00 0.00 0.00 72 1004.9
20260507172917 54 261 4.3 5.2 0.00 0.00 0.00 72 1005.2
20260507171808 54 243 3.5 3.5 0.00 0.00 0.00 71 1005.1
20260507170905 54 246 3.5 5.2 0.00 0.00 0.00 71 1004.9
20260507170009 54 266 6.1 9.6 0.00 0.00 0.00 71 1004.9
20260507165407 54 271 6.1 9.6 0.00 0.00 0.00 70 1005.2
20260507164505 55 205 7.0 9.6 0.00 0.00 0.00 68 1005.2
20260507163606 57 159 5.2 9.6 0.00 0.00 0.00 62 1005.1
20260507162923 57 164 5.2 7.0 0.00 0.00 0.00 61 1004.6
20260507161809 58 160 5.2 7.8 0.00 0.00 0.00 60 1004.7
20260507160907 58 134 6.1 7.8 0.00 0.00 0.00 60 1004.8
20260507160006 58 132 6.1 7.8 0.00 0.00 0.00 60 1004.7
20260507155405 58 138 7.0 7.8 0.00 0.00 0.00 60 1004.8
20260507154507 58 149 6.1 7.8 0.00 0.00 0.00 59 1004.7
20260507153605 58 177 5.2 7.8 0.00 0.00 0.00 58 1004.7
20260507152918 59 153 4.3 7.8 0.00 0.00 0.00 59 1004.6
20260507151805 58 134 6.1 7.8 0.00 0.00 0.00 61 1004.7
20260507150906 58 132 4.3 7.0 0.00 0.00 0.00 61 1005.0
20260507150007 58 145 4.3 6.1 0.00 0.00 0.00 62 1004.9
20260507145407 57 135 5.2 7.0 0.00 0.00 0.00 62 1004.9
20260507144508 57 137 6.1 9.6 0.00 0.00 0.00 61 1005.0
20260507143822 57 146 6.1 11.3 0.00 0.00 0.00 60 1005.1
20260507142711 57 131 6.1 9.6 0.00 0.00 0.00 61 1005.2
20260507141805 57 134 6.1 9.6 0.00 0.00 0.00 60 1005.3
20260507140910 58 130 7.8 9.6 0.00 0.00 0.00 60 1005.5
20260507140008 58 122 7.8 11.3 0.00 0.00 0.00 60 1005.2
20260507135407 58 135 8.7 13.0 0.00 0.00 0.00 60 1005.4
20260507134715 58 161 8.7 13.0 0.00 0.00 0.00 60 1005.5
20260507133605 59 130 9.6 14.8 0.00 0.00 0.00 58 1005.4
20260507132920 59 141 9.6 14.8 0.00 0.00 0.00 59 1005.6
20260507131805 59 129 7.8 9.6 0.00 0.00 0.00 60 1005.6
20260507130907 59 114 5.2 9.6 0.00 0.00 0.00 57 1005.5
20260507130006 58 117 7.0 9.6 0.00 0.00 0.00 60 1005.8
20260507125407 57 134 6.1 9.6 0.00 0.00 0.00 60 1005.6
20260507124507 57 133 5.2 7.0 0.00 0.00 0.00 60 1005.7
20260507123818 57 127 6.1 7.8 0.00 0.00 0.00 60 1005.7
20260507122707 57 161 5.2 7.8 0.00 0.00 0.00 59 1005.9
20260507121806 56 123 7.0 9.6 0.00 0.00 0.00 58 1006.0
20260507120910 56 129 6.1 9.6 0.00 0.00 0.00 62 1006.0
20260507120223 56 130 8.7 12.2 0.00 0.00 0.00 62 1006.0
20260507115406 55 136 7.8 11.3 0.00 0.00 0.00 61 1006.2
20260507114505 55 187 7.8 11.3 0.00 0.00 0.00 64 1005.9
20260507113605 55 139 8.7 12.2 0.00 0.00 0.00 64 1006.0
20260507112707 54 134 9.6 11.3 0.00 0.00 0.00 65 1006.2
20260507111808 54 141 9.6 11.3 0.00 0.00 0.00 66 1006.0
20260507110906 53 130 9.6 13.0 0.00 0.00 0.00 67 1006.1
20260507110006 53 138 8.7 12.2 0.00 0.00 0.00 68 1006.2
20260507105405 52 142 8.7 11.3 0.00 0.00 0.00 70 1006.0
20260507104508 52 139 6.1 9.6 0.00 0.00 0.00 72 1006.2
20260507103605 51 140 7.0 9.6 0.00 0.00 0.00 73 1006.4
20260507102705 51 128 7.0 9.6 0.00 0.00 0.00 74 1006.3
20260507101805 50 130 6.1 7.0 0.00 0.00 0.00 75 1006.8
20260507100906 49 125 5.2 7.8 0.00 0.00 0.00 76 1006.5
20260507100005 49 119 6.1 9.6 0.00 0.00 0.00 78 1006.5
20260507095620 49 118 6.1 9.6 0.00 0.00 0.00 78 1006.6
20260507094508 48 115 5.2 6.1 0.00 0.00 0.00 79 1006.8
20260507093815 48 113 5.2 6.1 0.00 0.00 0.00 80 1006.7
20260507092705 48 121 4.3 7.8 0.00 0.00 0.00 80 1006.8
20260507091808 47 129 6.1 7.8 0.00 0.00 0.00 81 1006.8